2016-07-12 00:03:36 r, 19.74m,0000000001Hz,0000431864c,0000000.937s, 029.3C,00002191
2016-07-12 00:13:36 r, 19.68m,0000000001Hz,0000407889c,0000000.885s, 029.3C,00002191
2016-07-12 00:23:36 r, 19.66m,0000000001Hz,0000402120c,0000000.873s, 029.0C,00002191
2016-07-12 00:33:36 r, 20.12m,0000000001Hz,0000609583c,0000001.323s, 029.0C,00002191
2016-07-12 00:43:36 r, 19.78m,0000000001Hz,0000444431c,0000000.964s, 029.0C,00002191
2016-07-12 00:53:36 r, 19.82m,0000000001Hz,0000462591c,0000001.004s, 029.0C,00002191
2016-07-12 01:03:36 r, 19.91m,0000000001Hz,0000500283c,0000001.086s, 029.0C,00002191
2016-07-12 01:13:38 r, 20.35m,0000000000Hz,0000757242c,0000001.643s, 029.0C,00002191
2016-07-12 01:23:36 r, 19.61m,0000000001Hz,0000384108c,0000000.834s, 029.0C,00002191
2016-07-12 01:33:36 r, 19.76m,0000000002Hz,0000437716c,0000000.950s, 029.0C,00002191
2016-07-12 01:43:37 r, 19.47m,0000000001Hz,0000337871c,0000000.733s, 029.0C,00002191
2016-07-12 01:53:36 r, 19.85m,0000000001Hz,0000477065c,0000001.035s, 029.0C,00002191
2016-07-12 02:03:36 r, 19.60m,0000000001Hz,0000377359c,0000000.819s, 029.3C,00002191
2016-07-12 02:13:36 r, 19.74m,0000000001Hz,0000429939c,0000000.933s, 029.3C,00002191
2016-07-12 02:23:36 r, 20.03m,0000000001Hz,0000564476c,0000001.225s, 029.3C,00002191
2016-07-12 02:33:36 r, 19.68m,0000000001Hz,0000406827c,0000000.883s, 029.3C,00002191
2016-07-12 02:43:36 r, 19.95m,0000000001Hz,0000519277c,0000001.127s, 029.3C,00002191
2016-07-12 02:53:36 r, 19.97m,0000000000Hz,0000528814c,0000001.148s, 029.3C,00002191
2016-07-12 03:03:36 r, 19.83m,0000000001Hz,0000463467c,0000001.006s, 029.3C,00002191
2016-07-12 03:13:36 r, 19.70m,0000000002Hz,0000414816c,0000000.900s, 029.3C,00002191
2016-07-12 03:23:37 r, 19.84m,0000000001Hz,0000469300c,0000001.018s, 029.3C,00002191
2016-07-12 03:33:36 r, 19.65m,0000000001Hz,0000398936c,0000000.866s, 029.3C,00002191
2016-07-12 03:43:36 r, 19.69m,0000000001Hz,0000411006c,0000000.892s, 029.0C,00002191
2016-07-12 03:53:37 r, 19.65m,0000000001Hz,0000395603c,0000000.859s, 028.6C,00002191
2016-07-12 04:03:38 r, 19.27m,0000000001Hz,0000279373c,0000000.606s, 028.6C,00002191
2016-07-12 04:13:37 r, 18.81m,0000000002Hz,0000182510c,0000000.396s, 028.3C,00002191
2016-07-12 04:23:37 r, 18.34m,0000000004Hz,0000119049c,0000000.258s, 028.3C,00002191
2016-07-12 04:33:36 r, 17.37m,0000000009Hz,0000048589c,0000000.105s, 028.3C,00002191
2016-07-12 04:43:36 r, 15.30m,0000000063Hz,0000007254c,0000000.016s, 028.3C,00002191
2016-07-12 04:53:36 r, 13.33m,0000000394Hz,0000000000c,0000000.000s, 028.3C,00002191
2016-07-12 05:03:36 r, 11.81m,0000001599Hz,0000000000c,0000000.000s, 028.0C,00002191
2016-07-12 05:13:36 r, 10.34m,0000006193Hz,0000000000c,0000000.000s, 028.0C,00002191
2016-07-12 05:23:38 r, 09.02m,0000020922Hz,0000000000c,0000000.000s, 027.7C,00002191
2016-07-12 05:33:36 r, 08.04m,0000051377Hz,0000000000c,0000000.000s, 027.7C,00002191
2016-07-12 05:43:36 r, 07.31m,0000100869Hz,0000000000c,0000000.000s, 027.7C,00002191
2016-07-12 05:53:38 r, 06.79m,0000162844Hz,0000000000c,0000000.000s, 027.3C,00002191
2016-07-12 06:03:37 r, 06.45m,0000221854Hz,0000000000c,0000000.000s, 027.3C,00002191
2016-07-12 06:13:36 r, 05.91m,0000365028Hz,0000000000c,0000000.000s, 027.7C,00002191
2016-07-12 06:23:37 r, 00.00m,0000595743Hz,0000000000c,0000000.000s, 027.7C,00002191
2016-07-12 06:33:36 r, 00.00m,0000595720Hz,0000000000c,0000000.000s, 028.0C,00002191
2016-07-12 06:43:36 r, 00.00m,0000595716Hz,0000000000c,0000000.000s, 029.0C,00002191
2016-07-12 06:53:41 r, 00.00m,0000595709Hz,0000000000c,0000000.000s, 029.6C,00002191
2016-07-12 07:29:00 r, 00.00m,0000595510Hz,0000000000c,0000000.000s, 029.9C,00002191
2016-07-12 07:29:00 r, 00.00m,0000595592Hz,0000000000c,0000000.000s, 030.2C,00002191
2016-07-12 07:29:00 r, 00.00m,0000595394Hz,0000000000c,0000000.000s, 031.2C,00002191
2016-07-12 07:34:00 r, 00.00m,0000595340Hz,0000000000c,0000000.000s, 031.5C,00002191
2016-07-12 07:43:36 r, 00.00m,0000595338Hz,0000000000c,0000000.000s, 031.5C,00002191
2016-07-12 07:53:37 r, 00.00m,0000595230Hz,0000000000c,0000000.000s, 031.2C,00002191
2016-07-12 08:07:15 r, 00.00m,0000595399Hz,0000000000c,0000000.000s, 031.2C,00002191
2016-07-12 08:13:41 r, 00.00m,0000595368Hz,0000000000c,0000000.000s, 031.2C,00002191
2016-07-12 08:24:19 r, 00.00m,0000595277Hz,0000000000c,0000000.000s, 031.2C,00002191
2016-07-12 08:33:46 r, 00.00m,0000595359Hz,0000000000c,0000000.000s, 031.2C,00002191
2016-07-12 08:43:40 r, 00.00m,0000595457Hz,0000000000c,0000000.000s, 030.9C,00002191
2016-07-12 08:56:50 r, 00.00m,0000595418Hz,0000000000c,0000000.000s, 030.9C,00002191
2016-07-12 09:03:37 r, 00.00m,0000595346Hz,0000000000c,0000000.000s, 031.2C,00002191
2016-07-12 09:13:36 r, 00.00m,0000595408Hz,0000000000c,0000000.000s, 031.5C,00002191
2016-07-12 09:23:36 r, 00.00m,0000595204Hz,0000000000c,0000000.000s, 032.2C,00002191
2016-07-12 09:34:16 r, 00.00m,0000595175Hz,0000000000c,0000000.000s, 033.5C,00002191
2016-07-12 10:06:25 r, 00.00m,0000595199Hz,0000000000c,0000000.000s, 033.8C,00002191
2016-07-12 10:06:25 r, 00.00m,0000594958Hz,0000000000c,0000000.000s, 035.1C,00002191
2016-07-12 10:06:25 r, 00.00m,0000594955Hz,0000000000c,0000000.000s, 034.8C,00002191
2016-07-12 10:13:37 r, 00.00m,0000595087Hz,0000000000c,0000000.000s, 034.8C,00002191
2016-07-12 10:23:41 r, 00.00m,0000594938Hz,0000000000c,0000000.000s, 035.1C,00002191
2016-07-12 10:33:41 r, 00.00m,0000594810Hz,0000000000c,0000000.000s, 036.0C,00002191
2016-07-12 10:43:37 r, 00.00m,0000594747Hz,0000000000c,0000000.000s, 036.4C,00002191
2016-07-12 10:53:38 r, 00.00m,0000594923Hz,0000000000c,0000000.000s, 035.7C,00002191
2016-07-12 11:03:37 r, 00.00m,0000594932Hz,0000000000c,0000000.000s, 035.7C,00002191
2016-07-12 11:13:37 r, 00.00m,0000594913Hz,0000000000c,0000000.000s, 035.4C,00002191
2016-07-12 11:23:37 r, 00.00m,0000594943Hz,0000000000c,0000000.000s, 034.8C,00002191
2016-07-12 11:33:36 r, 00.00m,0000594938Hz,0000000000c,0000000.000s, 034.4C,00002191
2016-07-12 11:43:37 r, 00.00m,0000594596Hz,0000000000c,0000000.000s, 037.0C,00002191
2016-07-12 11:53:36 r, 00.00m,0000593996Hz,0000000000c,0000000.000s, 040.9C,00002191
2016-07-12 12:05:44 r, 00.00m,0000594214Hz,0000000000c,0000000.000s, 039.6C,00002191
2016-07-12 12:13:55 r, 00.00m,0000594261Hz,0000000000c,0000000.000s, 039.6C,00002191
2016-07-12 12:23:45 r, 00.00m,0000594405Hz,0000000000c,0000000.000s, 039.0C,00002191
2016-07-12 12:33:46 r, 00.00m,0000594258Hz,0000000000c,0000000.000s, 039.6C,00002191
2016-07-12 12:43:46 r, 00.00m,0000594124Hz,0000000000c,0000000.000s, 040.6C,00002191
2016-07-12 12:54:00 r, 00.00m,0000594300Hz,0000000000c,0000000.000s, 039.0C,00002191
2016-07-12 13:06:20 r, 00.00m,0000594197Hz,0000000000c,0000000.000s, 039.0C,00002191
2016-07-12 13:14:00 r, 00.00m,0000593965Hz,0000000000c,0000000.000s, 040.2C,00002191
2016-07-12 13:29:50 r, 00.00m,0000594413Hz,0000000000c,0000000.000s, 038.6C,00002191
2016-07-12 13:34:11 r, 00.00m,0000594774Hz,0000000000c,0000000.000s, 036.0C,00002191
2016-07-12 13:43:37 r, 00.00m,0000594759Hz,0000000000c,0000000.000s, 035.7C,00002191
2016-07-12 13:53:46 r, 00.00m,0000594455Hz,0000000000c,0000000.000s, 037.3C,00002191
2016-07-12 14:03:36 r, 00.00m,0000594122Hz,0000000000c,0000000.000s, 039.9C,00002191
2016-07-12 14:13:40 r, 00.00m,0000594144Hz,0000000000c,0000000.000s, 040.2C,00002191
2016-07-12 14:23:36 r, 00.00m,0000594323Hz,0000000000c,0000000.000s, 039.0C,00002191
2016-07-12 14:33:37 r, 00.00m,0000594279Hz,0000000000c,0000000.000s, 039.3C,00002191
2016-07-12 14:43:36 r, 00.00m,0000594508Hz,0000000000c,0000000.000s, 038.3C,00002191
2016-07-12 14:53:36 r, 00.00m,0000594690Hz,0000000000c,0000000.000s, 037.0C,00002191
2016-07-12 15:03:37 r, 00.00m,0000594917Hz,0000000000c,0000000.000s, 035.4C,00002191
2016-07-12 15:13:37 r, 00.00m,0000594557Hz,0000000000c,0000000.000s, 036.0C,00002191
2016-07-12 15:23:37 r, 00.00m,0000593702Hz,0000000000c,0000000.000s, 042.2C,00002191
2016-07-12 15:33:37 r, 00.00m,0000593487Hz,0000000000c,0000000.000s, 043.8C,00002191
2016-07-12 15:43:37 r, 00.00m,0000593206Hz,0000000000c,0000000.000s, 045.7C,00002191
2016-07-12 15:53:51 r, 00.00m,0000593837Hz,0000000000c,0000000.000s, 042.5C,00002191
2016-07-12 16:03:39 r, 00.00m,0000593487Hz,0000000000c,0000000.000s, 043.8C,00002191
2016-07-12 16:13:37 r, 00.00m,0000593334Hz,0000000000c,0000000.000s, 045.1C,00002191
2016-07-12 16:23:36 r, 00.00m,0000593154Hz,0000000000c,0000000.000s, 046.4C,00002191
2016-07-12 16:33:37 r, 00.00m,0000593577Hz,0000000000c,0000000.000s, 044.1C,00002191
2016-07-12 16:43:37 r, 00.00m,0000593974Hz,0000000000c,0000000.000s, 041.2C,00002191
2016-07-12 16:53:37 r, 00.00m,0000594170Hz,0000000000c,0000000.000s, 039.6C,00002191
2016-07-12 17:03:37 r, 00.00m,0000594414Hz,0000000000c,0000000.000s, 038.3C,00002191
2016-07-12 17:13:37 r, 00.00m,0000593966Hz,0000000000c,0000000.000s, 040.6C,00002191
2016-07-12 17:23:37 r, 00.00m,0000593766Hz,0000000000c,0000000.000s, 041.9C,00002191
2016-07-12 17:33:37 r, 00.00m,0000593746Hz,0000000000c,0000000.000s, 042.5C,00002191
2016-07-12 17:43:37 r, 00.00m,0000594129Hz,0000000000c,0000000.000s, 040.2C,00002191
2016-07-12 17:53:37 r, 00.00m,0000594227Hz,0000000000c,0000000.000s, 039.3C,00002191
2016-07-12 18:03:37 r, 00.00m,0000594198Hz,0000000000c,0000000.000s, 039.0C,00002191
2016-07-12 18:13:37 r, 00.00m,0000594331Hz,0000000000c,0000000.000s, 038.0C,00002191
2016-07-12 18:23:38 r, 00.00m,0000594397Hz,0000000000c,0000000.000s, 037.7C,00002191
2016-07-12 18:33:37 r, 00.00m,0000594757Hz,0000000000c,0000000.000s, 035.7C,00002191
2016-07-12 18:43:37 r, 00.00m,0000594812Hz,0000000000c,0000000.000s, 034.8C,00002191
2016-07-12 18:53:37 r, 00.00m,0000594771Hz,0000000000c,0000000.000s, 034.8C,00002191
2016-07-12 19:03:37 r, 00.00m,0000594910Hz,0000000000c,0000000.000s, 034.1C,00002191
2016-07-12 19:13:37 r, 00.00m,0000594886Hz,0000000000c,0000000.000s, 033.5C,00002191
2016-07-12 19:23:37 r, 00.00m,0000594910Hz,0000000000c,0000000.000s, 033.5C,00002191
2016-07-12 19:33:37 r, 00.00m,0000594947Hz,0000000000c,0000000.000s, 033.1C,00002191
2016-07-12 19:43:37 r, 00.00m,0000595067Hz,0000000000c,0000000.000s, 032.8C,00002191
2016-07-12 19:53:37 r, 00.00m,0000595154Hz,0000000000c,0000000.000s, 032.2C,00002191
2016-07-12 20:03:37 r, 00.00m,0000595200Hz,0000000000c,0000000.000s, 031.5C,00002191
2016-07-12 20:13:37 r, 06.04m,0000325567Hz,0000000000c,0000000.000s, 031.2C,00002191
2016-07-12 20:23:37 r, 06.02m,0000331987Hz,0000000000c,0000000.000s, 030.6C,00002191
2016-07-12 20:33:37 r, 05.82m,0000398645Hz,0000000000c,0000000.000s, 029.9C,00002191
2016-07-12 20:43:37 r, 00.00m,0000438260Hz,0000000000c,0000000.000s, 029.9C,00002191
2016-07-12 20:53:37 r, 06.04m,0000324783Hz,0000000000c,0000000.000s, 029.9C,00002191
2016-07-12 21:03:37 r, 07.41m,0000091504Hz,0000000000c,0000000.000s, 029.3C,00002191
2016-07-12 21:13:37 r, 07.60m,0000077173Hz,0000000000c,0000000.000s, 029.6C,00002191
2016-07-12 21:23:37 r, 07.91m,0000058040Hz,0000000000c,0000000.000s, 029.6C,00002191
2016-07-12 21:33:37 r, 09.50m,0000013315Hz,0000000000c,0000000.000s, 029.3C,00002191
2016-07-12 21:43:37 r, 09.31m,0000015872Hz,0000000000c,0000000.000s, 029.3C,00002191
2016-07-12 21:53:37 r, 10.70m,0000004444Hz,0000000000c,0000000.000s, 029.0C,00002191
2016-07-12 22:03:37 r, 11.68m,0000001800Hz,0000000000c,0000000.000s, 029.0C,00002191
2016-07-12 22:13:37 r, 13.58m,0000000315Hz,0000000000c,0000000.000s, 029.0C,00002191
2016-07-12 22:23:37 r, 14.58m,0000000124Hz,0000003722c,0000000.008s, 029.0C,00002191
2016-07-12 22:33:37 r, 15.93m,0000000036Hz,0000012906c,0000000.028s, 029.0C,00002191
2016-07-12 22:43:37 r, 17.09m,0000000012Hz,0000037564c,0000000.082s, 029.0C,00002191
2016-07-12 22:53:37 r, 18.03m,0000000005Hz,0000089970c,0000000.195s, 029.0C,00002191
2016-07-12 23:03:37 r, 18.85m,0000000003Hz,0000190054c,0000000.412s, 029.0C,00002191
2016-07-12 23:13:37 r, 19.41m,0000000002Hz,0000318832c,0000000.692s, 029.0C,00002191
2016-07-12 23:23:37 r, 19.05m,0000000002Hz,0000228336c,0000000.496s, 029.0C,00002191
2016-07-12 23:33:37 r, 19.23m,0000000001Hz,0000270699c,0000000.587s, 029.0C,00002191
2016-07-12 23:43:37 r, 19.56m,0000000001Hz,0000366510c,0000000.795s, 029.0C,00002191
2016-07-12 23:53:37 r, 19.81m,0000000001Hz,0000457010c,0000000.992s, 029.0C,00002191
